Location: Sungai Ketit
(2.6833°N, 113.2333°E)
Time: 03:08:12
(UTC+00:00)

Daily predictions for brighter satellites

Satellite Brightness Start Highest point End
(mag) Time Altitude Azimuth Time Altitude Azimuth Time Altitude Azimuth
Cosmos 2100 Rocket 4.0 10:53:59 10° N 11:00:07 87° E 11:06:17 10° S
Hubble Space Telescope 1.2 10:59:54 10° WSW 11:03:50 60° NNW 11:07:46 10° NE
Ariane H10+ 4.3 10:48:09 10° W 11:05:08 71° N 11:08:37 10° E
Palapa 6 Rocket 4.2 10:58:02 10° WSW 11:05:30 81° NNW 11:11:44 10° ENE
Cosmos 972 Rocket 4.0 11:01:54 10° SSW 11:06:57 82° W 11:11:49 10° N
Delta 7925 Rocket 3.5 11:01:02 10° WSW 11:07:04 80° SSE 11:11:58 10° ENE
Delta 202 4.0 11:03:44 10° WSW 11:09:14 84° NNW 11:16:38 10° ENE
Cosmos 2173 Rocket 4.1 11:03:44 10° N 11:09:48 80° W 11:15:53 10° S
Palapa B4 Rocket 4.2 11:06:53 10° W 11:11:12 45° SSW 11:16:51 13° SE
Cosmos 2150 Rocket 4.1 11:09:47 10° N 11:15:10 72° ENE 11:20:36 10° SSE
Timation 2 Rocket 4.1 11:09:24 10° NNW 11:15:22 75° WSW 11:21:19 10° S
Delta 2 Rocket 3.0 11:12:25 10° WNW 11:15:36 59° SW 11:18:03 16° SE
deb Centaur AC-2 4.0 11:12:38 10° SW 11:17:08 62° SSE 11:21:22 10° ENE
Cosmos 1238 Rocket 3.5 11:13:18 10° S 11:17:53 80° W 11:23:11 10° N
ATLAS 5 CENTAUR R/B 4.2 11:14:23 10° NE 11:18:06 15° ENE 11:20:33 13° E
Cosmos 1782 3.6 11:18:50 11° SSE 11:21:56 27° E 11:25:10 10° NE
Cosmos 1725 Rocket 4.0 11:15:46 10° N 11:22:02 72° E 11:28:19 10° S
Cosmos 2278 Rocket 4.1 11:21:18 10° ENE 11:22:19 10° ENE 11:22:36 10° ENE
ADEOS Rocket 2.9 11:17:20 10° SSE 11:23:01 80° ENE 11:29:13 10° N
Helios 1B rocket 4.4 11:21:23 10° SSW 11:24:45 28° WSW 11:28:08 10° NW
Cosmos 1602 4.5 11:24:37 10° NNE 11:27:43 28° E 11:28:28 25° ESE
Cosmos 2112 Rocket 4.1 11:25:26 10° S 11:30:36 52° ESE 11:35:45 10° NNE
Landsat 7 3.9 11:27:34 12° SSE 11:31:43 52° ENE 11:36:16 10° N
Cosmos 1802 Rocket 4.4 11:27:10 10° N 11:33:28 69° W 11:39:44 10° S
SL-16 R/B 2.2 11:29:17 10° SSW 11:34:55 88° WNW 11:40:34 10° NNE
YAOGAN 3 4.4 11:33:59 10° SSE 11:38:17 87° ENE 11:42:33 10° N
Cosmos-2242 2.8 11:34:31 10° S 11:38:40 66° E 11:42:49 10° N
Cosmos 1680 Rocket 3.4 11:33:49 10° S 11:39:07 83° ESE 11:44:25 10° NNE
OAO 3 Rocket 3.6 11:37:50 10° SSW 11:42:15 40° SE 11:43:26 34° ESE
Cosmos 1271 Rocket 4.3 11:43:05 10° NNW 11:46:21 32° W 11:49:40 10° SSW
DELTA 2 R/B (1) 3.5 11:41:23 10° SW 11:46:55 63° SE 11:50:56 19° ENE
YAOGAN 1 2.7 11:43:39 11° S 11:47:45 71° WSW 11:52:00 10° NNW
Cosmos 1666 3.7 11:46:40 10° NNW 11:49:53 40° W 11:53:00 11° SSW
